Showing default

OPS 9348 (IDSCS 26), 3291

Orbit data source: Space-Track

OPS 9348 (IDSCS 26), 3291 is a payload satellite owned by SAMSO (US) in GEO that was launched on Thu, 13 Jun 1968 UTC via a TITAN IIIC launch vehicle from the Air Force Eastern Test Range (AFETR). Payload-class satellites include a variety of spacecraft equipped with specific instruments for various scientific and technological missions. These include communications satellites like Starlink; space stations such as the ISS; scientific satellites like the Hubble; Earth observation satellites from companies like Planet Labs, Umbra, and HawkEye 360; GPS; miniature CubeSats for education and research; and military/defense satellites.

Loading next visibility...
Identifier
3291, 1968-050H
Orbit
GEO
Country
Flag of USUS
Related business
Manufacturer
Philco-Ford
Mission
Non-operational spacecraft
Bus & Motor
IDCSP, Unknown motor
Mass
45 kg wet, 45 kg dry
Launch date (UTC)
1968-06-13 (58 years ago)
Launch vehicle
TITAN IIIC
Launch site
Air Force Eastern Test Range (AFETR)
Object type
Payload
Rocket body
Debris
Shape & HBR
POLY, 1.1 m
Radar Cross Section
Medium (>0.1 m² and <1 m²)

Expand to show TLE details & history
Last TLE update: 2 weeks ago

TLE from 2 weeks ago
0 OPS 9348 (IDSCS 26)
1  3291U 68050H   26241.87713270 -.00000113  00000-0  00000+0 0  9999
2  3291   7.0734  54.1062 0076443 137.1488  19.6429  1.06767719226816
Epoch: 2026-08-29T21:03Z
TLE epoch observation values (Epoch: 2026-08-29T21:03:04.265Z)
Latitude
2.76991°
Longitude
-82.50523°
Altitude
33,766.68 km
Speed
3.162 km/s
True Right ascension
14h 05m 22s
True Declination
2° 46' 01"
Sunlit
Object was in daylight at epoch
Visualization orbit readout
Latitude
Unknown
Longitude
Unknown
Altitude
Unknown
Speed
Unknown
Apparent Right ascension
Unknown
Apparent Declination
Unknown
Sunlit
N/A
Visualization observer readout
Local Sidereal Time
03:41:46
Azimuth
Unknown
Elevation
Unknown
Doppler factor
Unknown
Orbital elements
Apogee altitude
34,368.723 km
Perigee altitude
33,750.487 km
Semi-major axis
40,437.742 km
Eccentricity
0.00764
Inclination
7.0734°
RAAN
54.1062°
Arg. of periapsis
137.1488°
True anomaly
19.94004°
Mean anomaly
19.6429°
Eccentric anomaly
19.7912°
Mean motion
0.26691 °/min
Orbital period
1,348.78 mins
BSTAR
0
Loading maneuver chart data...
Computing Atmospheric mass density...
Loading historical data...
Loading historical data...
Loading historical data...
Loading historical data...
Loading historical data...
Loading historical data...
Loading historical data...

Documentation

Showing up to 5 results
|